{"data":{"norad_id":66362,"epoch":"2026-09-20T13:55:57.955296Z","epoch_age_seconds":86436,"freshness":"FRESH","line1":"1 66362U 25254Q   26263.58053189  .00007109  00000+0  22134-3 0  9990","line2":"2 66362  53.1597  45.1265 0001132  36.7105 323.3976 15.34398762 48842","mean_motion":15.34398762,"eccentricity":0.0001132,"inclination_deg":53.1597,"raan_deg":45.1265,"arg_perigee_deg":36.7105,"mean_anomaly_deg":323.3976,"bstar":0.00022134,"rev_number":4884,"period_min":93.847833800585,"perigee_km":461.93253627475,"apogee_km":463.4813033382,"semimajor_km":6840.8439198065,"source":"CELESTRAK","updated_at":"2026-09-21T09:00:35.881962Z"}}